When you browse on this site, cookies collect data to enhance your experience and personalize the content and advertising you see.
Visit our Privacy Policy to learn more. By continuing to use the site, you agree to this use of cookies and data.
  • en France
  • Liste des pays
  • À 7 jours
  • Température de l'eau
  • Carte satellitaire
  • Carte météo
  • Widgets météo
  • user-avatar
    Se connecter

    Météo par heure à Abondant

    Ce jour, 17 Février, Dimanche

    Heure Température Précipitation Vent Pression Humidité
    00:00 +6°C° 0 mm 2 m/s 754 mmHg 82%
    01:00 +5°C° 0 mm 3 m/s 753 mmHg 82%
    02:00 +5°C° 0 mm 3 m/s 753 mmHg 82%
    03:00 +5°C° 0 mm 3 m/s 752 mmHg 82%
    04:00 +4°C° 0 mm 3 m/s 752 mmHg 81%
    05:00 +4°C° 0 mm 4 m/s 752 mmHg 79%
    06:00 +4°C° 0 mm 4 m/s 752 mmHg 78%
    07:00 +5°C° 0 mm 4 m/s 752 mmHg 73%
    08:00 +6°C° 0 mm 5 m/s 752 mmHg 67%
    09:00 +6°C° 0 mm 5 m/s 752 mmHg 61%
    10:00 +8°C° 0 mm 5 m/s 752 mmHg 58%
    11:00 +10°C° 0 mm 6 m/s 752 mmHg 55%
    12:00 +11°C° 0 mm 6 m/s 752 mmHg 52%
    13:00 +11°C° 0 mm 6 m/s 751 mmHg 53%
    14:00 +13°C° 0 mm 5 m/s 751 mmHg 54%
    15:00 +13°C° 0 mm 5 m/s 751 mmHg 56%
    16:00 +12°C° 0 mm 4 m/s 751 mmHg 62%
    17:00 +10°C° 0 mm 4 m/s 751 mmHg 68%
    18:00 +8°C° 0 mm 3 m/s 751 mmHg 74%
    19:00 +8°C° 0 mm 3 m/s 751 mmHg 75%
    20:00 +8°C° 0 mm 3 m/s 751 mmHg 77%
    21:00 +7°C° 0 mm 3 m/s 751 mmHg 78%
    22:00 +7°C° 0 mm 3 m/s 751 mmHg 79%
    23:00 +5°C° 0 mm 3 m/s 751 mmHg 81%

    Demain, 18 Février, Lundi

    Heure Température Précipitation Vent Pression Humidité
    00:00 +5°C° 0 mm 3 m/s 751 mmHg 82%
    01:00 +5°C° 0 mm 3 m/s 751 mmHg 84%
    02:00 +4°C° 0 mm 3 m/s 751 mmHg 87%
    03:00 +4°C° 0 mm 3 m/s 751 mmHg 89%
    04:00 +4°C° 0 mm 3 m/s 751 mmHg 90%
    05:00 +3°C° 0 mm 3 m/s 751 mmHg 91%
    06:00 +3°C° 0 mm 3 m/s 751 mmHg 92%
    07:00 +4°C° 0 mm 3 m/s 751 mmHg 87%
    08:00 +5°C° 0 mm 4 m/s 751 mmHg 83%
    09:00 +6°C° 0 mm 4 m/s 751 mmHg 79%
    10:00 +7°C° 0 mm 4 m/s 751 mmHg 75%
    11:00 +10°C° 0 mm 4 m/s 751 mmHg 71%
    12:00 +11°C° 0 mm 4 m/s 751 mmHg 67%
    13:00 +12°C° 0 mm 4 m/s 750 mmHg 66%
    14:00 +12°C° 0 mm 4 m/s 750 mmHg 66%
    15:00 +12°C° 0 mm 4 m/s 750 mmHg 66%
    16:00 +11°C° 0 mm 3 m/s 750 mmHg 73%
    17:00 +10°C° 0 mm 3 m/s 750 mmHg 80%
    18:00 +8°C° 0 mm 2 m/s 750 mmHg 86%
    19:00 +8°C° 0 mm 2 m/s 751 mmHg 88%
    20:00 +7°C° 0 mm 2 m/s 751 mmHg 90%
    21:00 +7°C° 0 mm 2 m/s 751 mmHg 92%
    22:00 +7°C° 0.1 mm 2 m/s 751 mmHg 93%
    23:00 +7°C° 0.1 mm 2 m/s 751 mmHg 94%

    Après-demain, 19 Février, Mardi

    Heure Température Précipitation Vent Pression Humidité
    00:00 +7°C° 0.1 mm 2 m/s 752 mmHg 95%
    01:00 +7°C° 0.1 mm 2 m/s 752 mmHg 96%
    02:00 +8°C° 0.1 mm 1 m/s 752 mmHg 96%
    03:00 +7°C° 0.1 mm 1 m/s 752 mmHg 96%
    04:00 +7°C° 0 mm 1 m/s 752 mmHg 96%
    05:00 +6°C° 0 mm 1 m/s 752 mmHg 95%
    06:00 +6°C° 0 mm 1 m/s 753 mmHg 94%
    07:00 +7°C° 0 mm 1 m/s 753 mmHg 91%
    08:00 +7°C° 0 mm 1 m/s 753 mmHg 87%
    09:00 +8°C° 0 mm 1 m/s 754 mmHg 84%
    10:00 +9°C° 0 mm 1 m/s 754 mmHg 78%
    11:00 +10°C° 0 mm 1 m/s 754 mmHg 72%
    12:00 +12°C° 0 mm 2 m/s 754 mmHg 66%
    13:00 +12°C° 0 mm 2 m/s 754 mmHg 63%
    14:00 +12°C° 0 mm 2 m/s 754 mmHg 61%
    15:00 +12°C° 0 mm 2 m/s 754 mmHg 58%
    16:00 +11°C° 0 mm 1 m/s 754 mmHg 64%
    17:00 +10°C° 0 mm 1 m/s 754 mmHg 69%
    18:00 +7°C° 0 mm 0 m/s 754 mmHg 75%
    19:00 +7°C° 0 mm 0 m/s 754 mmHg 77%
    20:00 +7°C° 0 mm 1 m/s 754 mmHg 79%
    21:00 +7°C° 0 mm 1 m/s 754 mmHg 81%
    22:00 +6°C° 0 mm 1 m/s 754 mmHg 83%
    23:00 +6°C° 0 mm 1 m/s 754 mmHg 85%

    20 Février, Mercredi

    Heure Température Précipitation Vent Pression Humidité
    00:00 +6°C° 0 mm 1 m/s 754 mmHg 87%
    01:00 +5°C° 0 mm 1 m/s 754 mmHg 87%
    02:00 +4°C° 0 mm 2 m/s 754 mmHg 88%
    03:00 +4°C° 0 mm 2 m/s 754 mmHg 89%
    04:00 +4°C° 0 mm 2 m/s 754 mmHg 90%
    05:00 +4°C° 0 mm 2 m/s 754 mmHg 91%
    06:00 +4°C° 0 mm 2 m/s 754 mmHg 92%
    07:00 +5°C° 0 mm 2 m/s 755 mmHg 90%
    08:00 +6°C° 0 mm 2 m/s 755 mmHg 87%
    09:00 +7°C° 0 mm 2 m/s 755 mmHg 85%
    10:00 +8°C° 0 mm 3 m/s 755 mmHg 80%
    11:00 +10°C° 0 mm 3 m/s 755 mmHg 75%
    12:00 +12°C° 0 mm 3 m/s 756 mmHg 70%
    13:00 +12°C° 0 mm 3 m/s 755 mmHg 68%
    14:00 +13°C° 0 mm 3 m/s 755 mmHg 67%
    15:00 +13°C° 0 mm 3 m/s 755 mmHg 66%
    16:00 +13°C° 0 mm 2 m/s 755 mmHg 72%
    17:00 +10°C° 0 mm 2 m/s 756 mmHg 79%
    18:00 +10°C° 0 mm 1 m/s 756 mmHg 86%
    19:00 +9°C° 0 mm 2 m/s 756 mmHg 87%
    20:00 +8°C° 0 mm 2 m/s 756 mmHg 88%
    21:00 +8°C° 0 mm 2 m/s 756 mmHg 89%
    22:00 +8°C° 0 mm 2 m/s 756 mmHg 89%
    23:00 +7°C° 0 mm 2 m/s 757 mmHg 90%

    21 Février, Jeudi

    Heure Température Précipitation Vent Pression Humidité
    00:00 +7°C° 0 mm 2 m/s 757 mmHg 90%
    01:00 +7°C° 0 mm 2 m/s 757 mmHg 91%
    02:00 +7°C° 0 mm 2 m/s 757 mmHg 91%
    03:00 +6°C° 0 mm 2 m/s 757 mmHg 92%
    04:00 +7°C° 0 mm 1 m/s 757 mmHg 92%
    05:00 +7°C° 0 mm 1 m/s 757 mmHg 92%
    06:00 +7°C° 0 mm 1 m/s 757 mmHg 93%
    07:00 +8°C° 0 mm 1 m/s 758 mmHg 90%
    08:00 +9°C° 0 mm 1 m/s 758 mmHg 87%
    09:00 +10°C° 0 mm 1 m/s 759 mmHg 84%
    10:00 +11°C° 0 mm 1 m/s 759 mmHg 77%
    11:00 +13°C° 0 mm 1 m/s 759 mmHg 70%
    12:00 +14°C° 0 mm 1 m/s 759 mmHg 64%
    13:00 +15°C° 0 mm 1 m/s 759 mmHg 62%
    14:00 +15°C° 0 mm 1 m/s 759 mmHg 60%
    15:00 +16°C° 0 mm 1 m/s 758 mmHg 58%
    16:00 +14°C° 0 mm 1 m/s 759 mmHg 65%
    17:00 +13°C° 0 mm 1 m/s 759 mmHg 71%
    18:00 +11°C° 0 mm 1 m/s 759 mmHg 78%
    19:00 +10°C° 0 mm 0 m/s 759 mmHg 79%
    20:00 +9°C° 0 mm 0 m/s 760 mmHg 81%
    21:00 +9°C° 0 mm 0 m/s 760 mmHg 82%
    22:00 +8°C° 0 mm 0 m/s 760 mmHg 82%
    23:00 +8°C° 0 mm 0 m/s 761 mmHg 83%

    22 Février, Vendredi

    Heure Température Précipitation Vent Pression Humidité
    00:00 +8°C° 0 mm 0 m/s 761 mmHg 83%
    01:00 +8°C° 0 mm 1 m/s 761 mmHg 84%
    02:00 +8°C° 0 mm 1 m/s 761 mmHg 85%
    03:00 +8°C° 0 mm 1 m/s 761 mmHg 86%
    04:00 +8°C° 0 mm 1 m/s 761 mmHg 87%
    05:00 +7°C° 0 mm 1 m/s 761 mmHg 87%
    06:00 +7°C° 0 mm 1 m/s 761 mmHg 87%
    07:00 +8°C° 0 mm 1 m/s 761 mmHg 85%
    08:00 +9°C° 0 mm 1 m/s 762 mmHg 82%
    09:00 +10°C° 0 mm 1 m/s 762 mmHg 80%
    10:00 +12°C° 0 mm 2 m/s 762 mmHg 74%
    11:00 +13°C° 0 mm 2 m/s 762 mmHg 68%
    12:00 +14°C° 0 mm 2 m/s 762 mmHg 62%
    13:00 +15°C° 0 mm 2 m/s 762 mmHg 60%
    14:00 +15°C° 0 mm 2 m/s 761 mmHg 58%
    15:00 +14°C° 0 mm 3 m/s 761 mmHg 56%
    16:00 +14°C° 0 mm 2 m/s 761 mmHg 61%
    17:00 +12°C° 0 mm 2 m/s 761 mmHg 66%
    18:00 +10°C° 0 mm 2 m/s 761 mmHg 71%
    19:00 +9°C° 0 mm 2 m/s 761 mmHg 75%
    20:00 +8°C° 0 mm 2 m/s 761 mmHg 79%
    21:00 +8°C° 0 mm 2 m/s 761 mmHg 83%
    22:00 +8°C° 0 mm 2 m/s 761 mmHg 85%
    23:00 +7°C° 0 mm 2 m/s 761 mmHg 86%
    Voir plus